Regional Weather Roundup
Issued by NWS

Home | Current Version | Previous Version | Graphics & Text | Print | Product List | Glossary On
Versions: 1 2 3 4 5 6 7 8 9 10 11 12 13 14 15 16 17 18 19 20 21 22 23 24 25 26 27 28 29 30 31 32 33 34 35 36 37 38 39 40 41 42 43 44 45 46 47 48 49 50
000
ASUS43 KOAX 032202
RWRNE

WEATHER ROUNDUP FOR NEBRASKA
NATIONAL WEATHER SERVICE OMAHA NE
500 PM CDT FRI JUL 03 2015

NOTES: SATELLITE DATA IS BEING USED TO AUGMENT CLOUD COVER ABOVE
       12000 FEET.
       "FAIR" INDICATES FEW OR NO CLOUDS BELOW 12,000 FEET WITH NO
       SIGNIFICANT WEATHER AND/OR OBSTRUCTIONS TO VISIBILITY.

  * THESE STATIONS DO NOT REPORT WEATHER SUCH AS RAIN...SNOW OR FOG.

NEZ001>004-019>022-054>056-032300-
NEBRASKA PANHANDLE

CITY           SKY/WX    TMP DP  RH WIND       PRES   REMARKS
SCOTTSBLUFF    SUNNY     86  55  34 VRB7      30.03F
ALLIANCE       SUNNY     82  57  42 CALM      30.04F
CHADRON        SUNNY     84  54  35 E5        30.00F
KIMBALL          N/A    N/A N/A N/A MISG        N/A
SIDNEY         SUNNY     84  56  38 SE12      30.07F
$$

NEZ057>060-069>072-079>082-032300-
SOUTHWEST NEBRASKA

CITY           SKY/WX    TMP DP  RH WIND       PRES   REMARKS
NORTH PLATTE   SUNNY     83  58  42 VRB3      30.01F
IMPERIAL       SUNNY     87  53  31 VRB5      30.02F
LEXINGTON      SUNNY     82  59  45 CALM      30.00F
MCCOOK         PTSUNNY   82  61  48 E8        30.00F
$$

NEZ005>010-023>029-035>040-094-032300-
NORTH CENTRAL NEBRASKA

CITY           SKY/WX    TMP DP  RH WIND       PRES   REMARKS
VALENTINE      MOSUNNY   83  59  44 CALM      30.00F
AINSWORTH      SUNNY     81  59  46 NE5       30.01F
BROKEN BOW     MOSUNNY   81  60  48 SW6       30.00F
ORD            PTSUNNY   82  59  45 E5        29.97F
$$

NEZ041-046>049-061>064-073>077-083>087-032300-
SOUTH CENTRAL NEBRASKA

CITY           SKY/WX    TMP DP  RH WIND       PRES   REMARKS
GRAND ISLAND   MOSUNNY   76  61  59 SE5       30.01F
AURORA         SUNNY     76  62  61 N3        30.00F
HASTINGS       MOSUNNY   78  62  57 N5        30.00F
KEARNEY *      MOSUNNY   79  61  53 E7        30.00F
$$

NEZ011>018-030>034-042>045-032300-
NORTHEAST NEBRASKA

CITY           SKY/WX    TMP DP  RH WIND       PRES   REMARKS
NORFOLK        CLOUDY    76  63  64 CALM      29.99F
BLAIR          SUNNY     76  54  45 CALM      29.98F
COLUMBUS *     MOSUNNY   75  61  60 CALM      30.01F
FREMONT        SUNNY     77  60  54 S3        29.99S
TEKAMAH        SUNNY     80  57  45 W5        29.97F
$$

NEZ050>053-065>068-078-088>093-032300-
SOUTHEAST NEBRASKA

CITY           SKY/WX    TMP DP  RH WIND       PRES   REMARKS
LINCOLN        MOSUNNY   79  62  56 N5        29.98F
OMAHA EPPLEY   SUNNY     79  55  43 NW6       29.97F
FALLS CITY     SUNNY     79  57  46 N5        29.95F
NEBRASKA CITY  SUNNY     76  49  38 NE3       29.97F
PLATTSMOUTH    SUNNY     76  52  42 CALM      29.98F
$$

NEZ044-045-051>053-067-032300-
OMAHA AREA

CITY           SKY/WX    TMP DP  RH WIND       PRES   REMARKS
OMAHA EPPLEY   SUNNY     79  55  43 NW6       29.97F
BLAIR          SUNNY     76  54  45 CALM      29.98F
FREMONT        SUNNY     77  60  54 S3        29.99S
MILLARD        SUNNY     78  54  42 CALM      29.96F
OFFUTT AFB     SUNNY     78  55  44 SE5       29.96F
PLATTSMOUTH    SUNNY     76  52  42 CALM      29.98F
$$



USA.gov is the U.S. government's official web portal to all federal, state and local government web resources and services.